• în Republica Moldova
  • Lista ţărilor
  • Pe 7 zile
  • Temperatura apei
  • Hartă satelitară
  • Meteo pe hartă
  • Widget-uri
  • user-avatar
    Intrare

    Meteo pe oră la Molepolole

    Astăzi, 23 Martie, Sâmbătă

    Timp Temperatura Precipitaţii Vânt Presiune Umiditate
    00:00 +26°C° 0 mm 6 m/s 666 mmHg 56%
    01:00 +24°C° 0 mm 6 m/s 666 mmHg 60%
    02:00 +23°C° 0 mm 6 m/s 666 mmHg 64%
    03:00 +22°C° 0 mm 6 m/s 666 mmHg 66%
    04:00 +22°C° 0 mm 6 m/s 666 mmHg 69%
    05:00 +21°C° 0 mm 5 m/s 666 mmHg 72%
    06:00 +21°C° 0 mm 6 m/s 666 mmHg 71%
    07:00 +21°C° 0 mm 7 m/s 666 mmHg 71%
    08:00 +21°C° 0 mm 7 m/s 667 mmHg 71%
    09:00 +23°C° 0 mm 7 m/s 667 mmHg 65%
    10:00 +24°C° 0 mm 7 m/s 668 mmHg 60%
    11:00 +27°C° 0 mm 7 m/s 668 mmHg 54%
    12:00 +28°C° 0 mm 7 m/s 668 mmHg 48%
    13:00 +30°C° 0 mm 6 m/s 667 mmHg 41%
    14:00 +33°C° 0 mm 6 m/s 667 mmHg 35%
    15:00 +33°C° 0 mm 6 m/s 667 mmHg 34%
    16:00 +33°C° 0 mm 5 m/s 666 mmHg 33%
    17:00 +33°C° 0 mm 5 m/s 666 mmHg 33%
    18:00 +30°C° 0 mm 4 m/s 666 mmHg 36%
    19:00 +28°C° 0 mm 4 m/s 666 mmHg 40%
    20:00 +26°C° 0 mm 3 m/s 665 mmHg 44%
    21:00 +26°C° 0 mm 3 m/s 666 mmHg 46%
    22:00 +25°C° 0 mm 3 m/s 666 mmHg 48%
    23:00 +24°C° 0 mm 3 m/s 666 mmHg 50%

    Mâine, 24 Martie, Duminică

    Timp Temperatura Precipitaţii Vânt Presiune Umiditate
    00:00 +24°C° 0 mm 3 m/s 666 mmHg 53%
    01:00 +22°C° 0 mm 4 m/s 666 mmHg 56%
    02:00 +22°C° 0 mm 4 m/s 666 mmHg 58%
    03:00 +21°C° 0 mm 4 m/s 666 mmHg 61%
    04:00 +21°C° 0 mm 5 m/s 665 mmHg 63%
    05:00 +20°C° 0 mm 5 m/s 665 mmHg 66%
    06:00 +21°C° 0 mm 6 m/s 666 mmHg 65%
    07:00 +21°C° 0 mm 6 m/s 666 mmHg 64%
    08:00 +22°C° 0 mm 6 m/s 667 mmHg 63%
    09:00 +24°C° 0 mm 6 m/s 667 mmHg 55%
    10:00 +27°C° 0 mm 6 m/s 667 mmHg 48%
    11:00 +29°C° 0 mm 6 m/s 668 mmHg 40%
    12:00 +32°C° 0 mm 5 m/s 667 mmHg 36%
    13:00 +33°C° 0 mm 4 m/s 667 mmHg 32%
    14:00 +35°C° 0 mm 4 m/s 666 mmHg 28%
    15:00 +35°C° 0 mm 3 m/s 666 mmHg 27%
    16:00 +35°C° 0 mm 3 m/s 665 mmHg 26%
    17:00 +35°C° 0 mm 2 m/s 665 mmHg 25%
    18:00 +32°C° 0 mm 2 m/s 664 mmHg 28%
    19:00 +30°C° 0 mm 2 m/s 664 mmHg 31%
    20:00 +28°C° 0 mm 2 m/s 664 mmHg 35%
    21:00 +27°C° 0.1 mm 2 m/s 664 mmHg 37%
    22:00 +26°C° 0.1 mm 2 m/s 664 mmHg 39%
    23:00 +25°C° 0.1 mm 2 m/s 664 mmHg 41%

    Poimâine, 25 Martie, Luni

    Timp Temperatura Precipitaţii Vânt Presiune Umiditate
    00:00 +25°C° 0 mm 2 m/s 664 mmHg 41%
    01:00 +24°C° 0 mm 2 m/s 663 mmHg 42%
    02:00 +24°C° 0 mm 3 m/s 663 mmHg 43%
    03:00 +23°C° 0 mm 2 m/s 663 mmHg 44%
    04:00 +23°C° 0 mm 2 m/s 663 mmHg 46%
    05:00 +21°C° 0 mm 2 m/s 663 mmHg 48%
    06:00 +23°C° 0 mm 2 m/s 663 mmHg 46%
    07:00 +24°C° 0 mm 2 m/s 664 mmHg 44%
    08:00 +25°C° 0 mm 2 m/s 664 mmHg 43%
    09:00 +28°C° 0 mm 2 m/s 665 mmHg 37%
    10:00 +31°C° 0 mm 3 m/s 665 mmHg 32%
    11:00 +34°C° 0 mm 4 m/s 666 mmHg 26%
    12:00 +35°C° 0 mm 4 m/s 665 mmHg 24%
    13:00 +37°C° 0 mm 4 m/s 665 mmHg 21%
    14:00 +38°C° 0 mm 4 m/s 664 mmHg 19%
    15:00 +37°C° 0 mm 3 m/s 663 mmHg 20%
    16:00 +37°C° 0 mm 2 m/s 663 mmHg 21%
    17:00 +36°C° 0 mm 2 m/s 662 mmHg 22%
    18:00 +33°C° 0 mm 1 m/s 662 mmHg 23%
    19:00 +31°C° 0 mm 1 m/s 662 mmHg 25%
    20:00 +30°C° 0 mm 1 m/s 662 mmHg 27%
    21:00 +30°C° 0 mm 1 m/s 662 mmHg 27%
    22:00 +29°C° 0 mm 2 m/s 662 mmHg 27%
    23:00 +29°C° 0 mm 2 m/s 663 mmHg 26%

    26 Martie, Marţi

    Timp Temperatura Precipitaţii Vânt Presiune Umiditate
    00:00 +29°C° 0 mm 2 m/s 663 mmHg 26%
    01:00 +29°C° 0 mm 2 m/s 663 mmHg 25%
    02:00 +29°C° 0 mm 2 m/s 662 mmHg 25%
    03:00 +27°C° 0 mm 2 m/s 662 mmHg 25%
    04:00 +26°C° 0 mm 2 m/s 662 mmHg 24%
    05:00 +24°C° 0 mm 2 m/s 662 mmHg 24%
    06:00 +26°C° 0 mm 2 m/s 663 mmHg 24%
    07:00 +27°C° 0 mm 2 m/s 663 mmHg 23%
    08:00 +28°C° 0 mm 2 m/s 664 mmHg 22%
    09:00 +31°C° 0 mm 2 m/s 665 mmHg 19%
    10:00 +35°C° 0 mm 3 m/s 665 mmHg 16%
    11:00 +37°C° 0 mm 3 m/s 666 mmHg 13%
    12:00 +38°C° 0 mm 3 m/s 665 mmHg 12%
    13:00 +39°C° 0 mm 3 m/s 665 mmHg 11%
    14:00 +40°C° 0 mm 3 m/s 664 mmHg 10%
    15:00 +40°C° 0 mm 3 m/s 664 mmHg 10%
    16:00 +39°C° 0 mm 3 m/s 664 mmHg 10%
    17:00 +39°C° 0 mm 2 m/s 663 mmHg 10%
    18:00 +37°C° 0 mm 2 m/s 663 mmHg 11%
    19:00 +35°C° 0 mm 2 m/s 664 mmHg 12%
    20:00 +31°C° 0 mm 2 m/s 664 mmHg 14%
    21:00 +31°C° 0 mm 1 m/s 664 mmHg 15%
    22:00 +30°C° 0 mm 1 m/s 665 mmHg 16%
    23:00 +30°C° 0 mm 1 m/s 665 mmHg 17%

    27 Martie, Miercuri

    Timp Temperatura Precipitaţii Vânt Presiune Umiditate
    00:00 +29°C° 0 mm 2 m/s 665 mmHg 26%
    01:00 +27°C° 0 mm 4 m/s 665 mmHg 36%
    02:00 +26°C° 0 mm 6 m/s 665 mmHg 46%
    03:00 +24°C° 0 mm 6 m/s 665 mmHg 56%
    04:00 +23°C° 0 mm 6 m/s 665 mmHg 66%
    05:00 +22°C° 0 mm 6 m/s 665 mmHg 76%
    06:00 +22°C° 0 mm 7 m/s 666 mmHg 74%
    07:00 +23°C° 0 mm 7 m/s 667 mmHg 73%
    08:00 +23°C° 0 mm 7 m/s 668 mmHg 71%
    09:00 +26°C° 0 mm 6 m/s 668 mmHg 64%
    10:00 +28°C° 0 mm 6 m/s 668 mmHg 57%
    11:00 +29°C° 0 mm 6 m/s 669 mmHg 50%
    12:00 +32°C° 0 mm 5 m/s 668 mmHg 43%
    13:00 +34°C° 0 mm 5 m/s 668 mmHg 36%
    14:00 +36°C° 0 mm 4 m/s 667 mmHg 29%
    15:00 +36°C° 0 mm 3 m/s 667 mmHg 27%
    16:00 +36°C° 0 mm 2 m/s 667 mmHg 24%
    17:00 +36°C° 0 mm 1 m/s 666 mmHg 22%
    18:00 +34°C° 0 mm 1 m/s 666 mmHg 24%
    19:00 +34°C° 0 mm 2 m/s 666 mmHg 27%
    20:00 +31°C° 0 mm 2 m/s 666 mmHg 29%
    21:00 +30°C° 0 mm 3 m/s 667 mmHg 35%
    22:00 +29°C° 0 mm 4 m/s 667 mmHg 40%
    23:00 +28°C° 0 mm 5 m/s 667 mmHg 45%

    28 Martie, Joi

    Timp Temperatura Precipitaţii Vânt Presiune Umiditate
    00:00 +27°C° 0 mm 4 m/s 667 mmHg 49%
    01:00 +26°C° 0 mm 3 m/s 666 mmHg 53%
    02:00 +26°C° 0 mm 2 m/s 666 mmHg 57%
    03:00 +25°C° 0 mm 3 m/s 666 mmHg 59%
    04:00 +25°C° 0 mm 3 m/s 666 mmHg 61%
    05:00 +25°C° 0 mm 4 m/s 666 mmHg 63%
    06:00 +25°C° 0 mm 3 m/s 666 mmHg 63%
    07:00 +25°C° 0 mm 3 m/s 667 mmHg 62%
    08:00 +25°C° 0 mm 3 m/s 667 mmHg 62%
    09:00 +27°C° 0 mm 3 m/s 667 mmHg 56%
    10:00 +29°C° 0 mm 4 m/s 667 mmHg 49%
    11:00 +30°C° 0 mm 5 m/s 668 mmHg 43%
    12:00 +33°C° 0 mm 5 m/s 667 mmHg 38%
    13:00 +35°C° 0 mm 5 m/s 667 mmHg 33%
    14:00 +36°C° 0 mm 5 m/s 666 mmHg 28%
    15:00 +37°C° 0 mm 5 m/s 666 mmHg 27%
    16:00 +37°C° 0 mm 4 m/s 666 mmHg 25%
    17:00 +37°C° 0 mm 4 m/s 665 mmHg 24%
    18:00 +34°C° 0.1 mm 4 m/s 665 mmHg 29%
    19:00 +31°C° 0.1 mm 3 m/s 665 mmHg 33%
    20:00 +29°C° 0.1 mm 3 m/s 665 mmHg 38%
    21:00 +28°C° 0.1 mm 4 m/s 665 mmHg 39%
    22:00 +28°C° 0.1 mm 5 m/s 665 mmHg 40%
    23:00 +28°C° 0.1 mm 6 m/s 665 mmHg 41%
    Arată mai mult